STARLINK-5140 (56147 NORAD) Tracking and Keplerian Element Data

This shows tracking and keplerian element data for the satellite.

Feedback or suggestion? Click here.




ElementValue
Catalog56147
NameSTARLINK-5140
Epoch Orbit656
Epoch Day127.09907023
Epoch Year2023
RAAN33.1344
Inclination43.0022
Eccentricity0.0001506
Argument of Perigee273.6845
Mean Anonmoly86.3851
Mean Motion15.71328391
Decay Rate-3.098E-05
L11 56147U 23046BH 23127.09907023 -.00003098 00000+0 -20208-4 0 9990
L22 56147 43.0022 33.1344 0001506 273.6845 86.3851 15.71328391 6569



Live tracking and technical data element details for STARLINK-5140 (NORAD 56147). STARLINK-5140 can be tracked NOW for your location showing map with azimuth and elevation plus other details from your city location.







IsCatalogInMostPopularTable: catalog: 56147, numindb: 2
Update: records affected: 1



GetName: 56147 STARLINK-5140

Hit Count: updated at: Sun, 04 Jun 2023 23:03:00 GMT